Chillicothe, MO

4:48 AM CST on December 14, 2019 (GMT -0600)
Chillicothe

Weather History for KCDJ - November, 2019

Change the Weather History Date:

Saturday, November 16, 2019

  Actual Average (WUND) Record (WUND)
Temperature  
Mean Temperature 40 °F -  
Max Temperature 53 °F - - (-1)
Min Temperature 27 °F - - (-1)
Degree Days  
Heating Degree Days 25    
Moisture  
Dew Point 26 °F    
Average Humidity 61    
Maximum Humidity 82    
Minimum Humidity 35    
Precipitation  
Precipitation 0.00 in - - ()
Sea Level Pressure  
Sea Level Pressure 30.23 in    
Wind  
Wind Speed 4 mph (SE)    
Max Wind Speed 9 mph    
Max Gust Speed 18 mph    
Averages and records for this station are not official NWS values.
T = Trace of Precipitation, MM = Missing Value Source: NWS Daily Summary

Daily Weather History Graph

Daily Weather History Graph

Search for Another Location

Airport or City:

Astronomy

Nov. 16, 2019 Rise Set
Actual Time 6:59 AM CST 4:57 PM CST
Civil Twilight 6:30 AM CST 5:26 PM CST
Nautical Twilight 5:58 AM CST 5:59 PM CST
Astronomical Twilight 5:26 AM CST 6:31 PM CST
Moon 8:31 PM CST (11/16) 10:54 AM CST (11/16)
Length of Visible Light 10h 55m
Length of Day
9h 57m
Waning Gibbous, 82% of the Moon is Illuminated
Nov 16
Waning Gibbous
Nov 19
Last Quarter
Nov 26
New
Dec 4
First Quarter
Dec 11
Full

Hourly Weather History & Observations

Time (CST) Temp. Windchill Dew Point Humidity Pressure Visibility Wind Dir Wind Speed Gust Speed Precip Events Conditions
12:52 AM 27.0 °F - 21.9 °F 81% 30.36 in - Calm Calm - N/A   Unknown
1:52 AM 30.0 °F 26.5 °F 21.9 °F 72% 30.35 in - SE 3.5 mph - N/A   Unknown
2:52 AM 30.0 °F - 21.9 °F 72% 30.34 in - Calm Calm - N/A   Unknown
3:52 AM 28.9 °F - 21.9 °F 75% 30.34 in - Calm Calm - N/A   Unknown
4:52 AM 30.0 °F - 21.0 °F 69% 30.33 in - Calm Calm - N/A   Unknown
5:52 AM 30.0 °F 26.5 °F 21.0 °F 69% 30.34 in - SE 3.5 mph - N/A   Unknown
6:52 AM 30.0 °F 26.5 °F 21.0 °F 69% 30.34 in - SE 3.5 mph - N/A   Unknown
9:52 AM 41.0 °F 38.0 °F 26.1 °F 55% 30.33 in - Variable 4.6 mph - N/A   Unknown
10:52 AM 44.1 °F 39.0 °F 26.1 °F 49% 30.30 in - SE 9.2 mph - N/A   Unknown
12:52 PM 51.1 °F - 26.1 °F 38% 30.21 in - SE 9.2 mph 17.3 mph N/A   Unknown
2:52 PM 53.1 °F - 26.1 °F 35% 30.15 in - SSE 9.2 mph - N/A   Unknown
3:52 PM 51.1 °F - 27.0 °F 39% 30.14 in - SE 8.1 mph 18.4 mph N/A   Unknown
4:52 PM 48.9 °F - 28.9 °F 46% 30.12 in - SE 6.9 mph - N/A   Unknown
5:52 PM 46.9 °F - 28.9 °F 50% 30.12 in - SE 6.9 mph - N/A   Unknown
6:52 PM 46.0 °F 41.9 °F 30.0 °F 54% 30.12 in - SE 8.1 mph - N/A   Unknown
7:52 PM 45.0 °F 41.8 °F 30.9 °F 58% 30.11 in - SE 5.8 mph - N/A   Unknown
8:52 PM 42.1 °F 38.4 °F 30.9 °F 65% 30.12 in - ESE 5.8 mph - N/A   Unknown
10:52 PM 37.0 °F 33.3 °F 32.0 °F 82% 30.12 in - SE 4.6 mph - N/A   Unknown
11:52 PM 41.0 °F 38.0 °F 34.0 °F 76% 30.10 in - SE 4.6 mph - N/A   Unknown